Regional Weather Roundup
Issued by NWS

Home | Current Version | Previous Version | Text Only | Print | Product List | Glossary On
Versions: 1 2 3 4 5 6 7 8 9 10 11 12 13 14 15 16 17 18 19 20 21 22 23 24 25 26 27 28 29 30 31 32 33 34 35 36 37 38 39 40 41 42 43 44 45 46 47 48 49 50
000
ASUS45 KABQ 210510
RWRNM
NEW MEXICO REGIONAL WEATHER ROUNDUP
NATIONAL WEATHER SERVICE ALBUQUERQUE NM
1100 PM MDT WED SEP 20 2017

NOTE: "FAIR" MEANS FEW OR NO CLOUDS BELOW 12,000 FEET AGL WITH NO
       SIGNIFICANT WEATHER OR OBSTRUCTIONS TO VISION.

      THIS PRODUCT IS RELEASED AS TWO VERSIONS.  ONE VERSION NEAR
      THE TOP OF THE HOUR CONTAINING PRELIMINARY DATA FROM ALBUQUERQUE
      AND OTHER STATIONS.  A FINAL VERSION WITH ADDITIONAL DATA IS
      ISSUED ABOUT 10 MINUTES AFTER THE HOUR.

NMZ501-503-504-510>518-210600-
NORTHWEST PLATEAU/NORTHCENTRAL MOUNTAINS

CITY           SKY/WX    TMP DP  RH WIND       PRES   REMARKS
FARMINGTON     FAIR      67  26  21 SW5       29.96R
LOS ALAMOS     FAIR      66  21  17 SW8       30.13S
SANTA FE       FAIR      57  24  28 N3        30.06S
TAOS           FAIR      53  21  28 E7        30.14R
ANGEL FIRE     FAIR      38  25  60 CALM      30.21R

$$
NMZ402-403-502-505>509-210600-
WESTCENTRAL MOUNTAINS/SOUTHWEST MOUNTAINS

CITY           SKY/WX    TMP DP  RH WIND       PRES   REMARKS
GALLUP         FAIR      65  32  29 SW12      30.08R
GRANTS         FAIR      66  33  29 W9        30.12R
SILVER CITY    FAIR      61  41  48 NW6       30.07S

$$
NMZ407-409-411-412-210600-
SOUTHERN DESERTS

CITY           SKY/WX    TMP DP  RH WIND       PRES   REMARKS
DEMING         FAIR      70  46  42 NW6       29.99S
LAS CRUCES     FAIR      69  39  32 S6        30.01R
HOLLOMAN AFB   CLEAR     73  39  28 SE9       30.00S
ALAMOGORDO     FAIR      75  41  29 S9        29.99S
T OR C         FAIR      76  40  27 W6        30.00R

$$
NMZ519>523-210600-
CENTRAL VALLEYS/CENTRAL HIGHLANDS

CITY           SKY/WX    TMP DP  RH WIND       PRES   REMARKS
ALBUQUERQUE    FAIR      74  26  16 S16       30.01R
MORIARTY ARPT  FAIR      59  27  28 S9        30.09R
CLINES CORNERS FAIR      62  35  36 SW20      30.14R
BELEN          FAIR      71  28  20 SW9       30.01R
SOCORRO        FAIR      70  33  24 CALM      29.98R

$$
NMZ524>526-539-540-210600-
SOUTHCENTRAL MOUNTAINS

CITY           SKY/WX    TMP DP  RH WIND       PRES   REMARKS
RUIDOSO        FAIR      64  36  34 SW14      30.17S

$$
NMZ527>531-210600-
NORTHEAST HIGHLANDS/NORTHEAST PLAINS

CITY           SKY/WX    TMP DP  RH WIND       PRES   REMARKS
LAS VEGAS      FAIR      57  24  28 S7        30.11R
RATON          FAIR      58  35  42 SW8       30.06R
CLAYTON        FAIR      57  40  52 SW10      29.99S

$$
NMZ532>537-210600-
EASTCENTRAL PLAINS

CITY           SKY/WX    TMP DP  RH WIND       PRES   REMARKS
SANTA ROSA     FAIR      67  29  23 SW8       29.97S
TUCUMCARI      FAIR      67  40  37 VRB5      29.92R
CANNON AFB     CLEAR     65  49  56 SE9       29.99R
CLOVIS AIRPORT FAIR      61  48  62 SE7       29.98S

$$
NMZ028-029-538-210600-
SOUTHEAST PLAINS

CITY           SKY/WX    TMP DP  RH WIND       PRES   REMARKS
ROSWELL        FAIR      75  38  26 SW12      29.92R
ARTESIA        FAIR      72  39  30 SW9       29.92S
CARLSBAD       FAIR      69  42  37 SW6       29.91R
HOBBS          FAIR      70  46  43 S9        29.95S


$$




USA.gov is the U.S. government's official web portal to all federal, state and local government web resources and services.